Satellite: IDEFIX/ARIANE 
Catalog number: 27422
Epoch time:      103004.19707155
Element set:     200 
Inclination:       98.7004 deg
RA of node:        83.5929 deg
Eccentricity:    0.0011686
Arg of perigee:   282.4562 deg
Mean anomaly:      77.5311 deg
Mean motion:   14.27941883 rev/day
Decay rate:    2.0200E-006 rev/day^2
Epoch rev:            3498
Checksum:              295

Satellite: NOAA 17
Catalog number: 27453
Epoch time:      103004.01125906
Element set:     256 
Inclination:       98.7637 deg
RA of node:        75.4462 deg
Eccentricity:    0.0012417
Arg of perigee:   126.1368 deg
Mean anomaly:     234.0961 deg
Mean motion:   14.23263538 rev/day
Decay rate:    3.1300E-006 rev/day^2
Epoch rev:            2748
Checksum:              287

Satellite: HOT BIRD 6
Catalog number: 27499
Epoch time:      102364.09542247
Element set:     64 
Inclination:        0.0040 deg
RA of node:         8.7196 deg
Eccentricity:    0.0011180
Arg of perigee:   225.2390 deg
Mean anomaly:     271.8102 deg
Mean motion:    1.00272778 rev/day
Decay rate:    9.5000E-007 rev/day^2
Epoch rev:             132
Checksum:              254

Satellite: RUBIN 2
Catalog number: 27605
Epoch time:      103003.90595621
Element set:     20 
Inclination:       64.5580 deg
RA of node:       335.8970 deg
Eccentricity:    0.0031709
Arg of perigee:   130.6704 deg
Mean anomaly:     229.7136 deg
Mean motion:   14.71354067 rev/day
Decay rate:    6.8700E-006 rev/day^2
Epoch rev:             209
Checksum:              285


Read previous mail | Read next mail


 15.03.2026 13:34:14lGo back Go up